Tracking 23731 objects as of 26-Sep-2021
HD Live streaming from Space Station
objects crossing your sky now

STARLINK-80

Track STARLINK-80 now!
10-day predictions
STARLINK-80 is classified as:


NORAD ID: 44282
Int'l Code: 2019-029AZ
Perigee: 468.2 km
Apogee: 471.2 km
Inclination: 53.0 °
Period: 93.8 minutes
Semi major axis: 6840 km
RCS: Unknown
Launch date: May 24, 2019
Source: United States (US)
Launch site: AIR FORCE EASTERN TEST RANGE (AFETR)
aabbcc
Your satellite tracking list
Your tracking list is empty




NASA's NSSDC Master Catalog

Two Line Element Set (TLE):
1 44282U 19029AZ  21268.01829281  .00031109  00000-0  92643-3 0  9992
2 44282  53.0187 172.2511 0002237 194.7100 165.3836 15.34451311129104
Source of the keplerian elements: AFSPC